Theta_e
302 302 301 299 300 303 303 302 304 304 302 303 302 301 300 298 296 294 293 292 295 299 303 303 304 306 306 306 307 307 307 309 311 310 310 310 311 310 309 309 308 310 309 307 305 304 304 305 306 310 312 314 315 315 314 315 314 314 315 314 315 315 316 317 317 324 328 332 330 326 324 322 320 317
305 304 303 302 301 304 302 303 304 305 304 303 302 300 301 299 298 297 295 294 296 298 300 303 302 303 304 306 307 307 306 311 310 308 308 307 308 308 308 307 307 309 308 307 306 304 304 305 307 310 311 311 312 311 311 310 310 311 311 313 314 315 317 316 317 320 325 327 326 324 321 321 320 318
304 302 303 303 302 305 304 303 303 303 304 303 302 301 301 302 300 298 297 293 295 301 299 299 302 302 303 305 305 306 306 308 308 306 306 306 308 309 308 307 307 308 309 308 306 305 304 304 305 305 308 310 311 311 311 311 310 311 311 311 312 316 319 318 318 320 322 323 324 324 322 321 319 319
304 303 301 303 302 302 300 301 303 303 303 304 301 301 301 300 301 300 298 296 297 298 300 300 302 303 303 304 304 303 304 306 308 304 304 305 308 306 306 307 307 306 305 306 306 306 305 305 305 305 305 305 306 307 307 308 310 310 309 310 312 314 317 318 318 323 324 322 322 322 321 321 319 318
303 304 303 302 302 302 301 302 300 300 300 301 302 302 301 301 300 300 298 297 298 298 299 300 301 303 303 303 302 302 302 302 303 306 303 304 303 304 305 306 305 305 304 303 303 303 304 304 304 304 304 304 304 306 306 308 309 308 306 307 307 310 315 318 318 319 324 323 322 319 319 319 319 318
304 302 302 303 302 303 301 300 300 300 300 300 298 299 302 300 300 300 301 297 297 296 299 300 301 301 303 299 301 300 300 301 303 303 303 304 303 304 304 304 305 304 304 302 302 303 303 302 302 302 302 302 303 304 304 303 303 305 305 305 305 309 311 315 316 316 318 319 319 319 318 318 318 319
303 301 301 301 301 303 299 300 301 301 301 301 299 299 300 299 299 299 300 297 296 296 296 298 298 298 299 298 300 300 301 301 302 301 302 302 303 304 303 303 304 304 303 302 303 302 302 302 301 300 301 301 301 301 303 303 303 302 302 303 304 303 304 305 308 311 311 316 318 317 317 317 319 322
302 301 299 300 301 302 299 300 300 300 300 300 300 299 299 297 298 298 297 297 296 295 294 294 297 298 297 297 299 300 300 300 300 301 301 302 302 303 304 304 305 305 304 303 303 304 304 302 302 301 301 301 301 301 301 302 302 301 302 302 302 301 301 301 302 303 307 312 315 315 315 316 320 324
302 302 301 300 302 301 299 300 300 299 299 300 298 296 296 296 297 297 296 295 295 293 292 293 295 296 295 297 297 298 297 298 299 300 299 299 300 301 302 303 305 305 304 304 304 303 302 302 302 302 302 302 302 301 301 301 302 302 303 303 303 302 301 300 301 302 302 303 304 311 315 315 321 324
303 302 302 301 303 301 300 299 299 299 298 297 295 294 294 294 295 294 294 294 293 292 291 291 291 292 293 293 293 296 297 296 297 297 298 298 299 299 299 301 303 305 305 304 303 303 302 303 303 303 303 302 302 303 303 302 302 302 302 303 303 302 301 301 300 300 300 301 300 302 309 314 319 323
303 302 302 302 302 302 300 300 299 298 296 296 295 296 294 294 293 293 293 292 291 290 289 290 290 290 292 292 292 295 296 296 296 295 295 295 297 298 298 298 300 303 302 300 299 299 300 302 303 302 301 302 303 303 303 304 304 303 302 302 301 301 301 300 300 300 300 300 300 300 301 305 312 319
303 303 303 303 302 302 301 300 299 296 294 294 293 294 294 293 292 291 292 290 289 289 289 288 288 289 290 291 292 294 293 293 294 296 294 293 294 296 297 297 297 300 299 297 298 299 300 300 301 301 301 302 302 302 303 306 306 305 303 302 301 301 301 301 301 300 300 300 300 300 300 300 302 310
302 302 302 301 301 304 305 302 300 298 297 293 291 292 293 293 291 290 290 290 289 289 289 289 290 289 289 289 290 291 291 290 291 294 294 293 294 295 294 295 298 299 295 296 296 296 298 298 299 299 300 301 303 303 303 305 306 304 302 302 301 302 301 301 301 301 301 301 301 300 299 299 300 299
302 302 301 304 307 306 303 299 296 295 296 298 295 292 291 293 290 290 289 289 289 290 288 288 288 288 288 289 289 290 290 292 293 292 292 292 293 293 293 294 295 297 295 294 293 295 298 298 298 298 298 300 302 302 303 304 303 302 300 301 302 301 301 301 300 300 300 300 300 299 299 299 299 298
302 301 301 302 305 303 301 297 294 293 294 294 294 295 296 295 291 289 289 288 288 290 289 289 288 287 288 289 290 289 291 292 292 291 292 292 291 290 289 289 292 295 294 293 292 293 296 297 296 297 298 299 300 301 302 301 300 298 298 300 300 300 300 299 300 299 299 299 299 299 299 299 299 298
301 301 300 300 301 297 295 293 293 294 293 293 293 293 293 293 294 294 292 291 289 288 287 287 288 287 288 289 289 290 291 291 292 292 291 291 290 289 289 288 289 293 294 292 291 292 295 296 296 296 297 298 299 301 300 298 297 298 298 299 299 299 299 299 299 299 298 298 298 298 298 298 297 297
301 300 300 299 300 299 302 300 292 293 292 293 292 292 292 292 291 290 290 292 293 289 288 288 287 288 288 288 289 291 291 292 290 291 291 291 290 290 289 289 290 292 293 292 291 290 293 294 294 294 296 297 298 299 298 297 297 298 298 297 297 297 298 298 298 298 297 297 297 297 297 296 296 296
300 301 300 299 299 298 299 296 293 293 293 293 291 290 289 290 293 292 291 290 290 292 291 289 288 289 290 290 290 292 291 290 290 290 290 290 290 289 289 290 290 292 294 291 290 290 291 292 293 292 294 297 297 297 296 296 297 297 296 296 296 296 296 296 296 296 295 295 295 295 295 295 295 294
300 300 300 300 298 298 298 299 297 295 293 292 292 290 290 289 290 290 291 291 290 290 290 289 289 289 290 290 291 291 291 291 291 291 290 290 290 290 290 290 290 290 291 291 290 288 290 291 291 292 293 295 295 296 295 295 295 296 296 295 296 296 295 295 295 295 295 295 295 295 294 293 294 293
299 299 299 299 298 299 300 298 295 296 294 293 292 292 290 289 289 290 294 293 292 292 290 290 290 290 291 292 291 291 291 290 290 291 291 289 288 288 287 287 288 288 289 290 289 289 289 289 291 291 293 294 293 295 293 294 295 296 295 295 295 295 295 295 295 295 295 295 295 295 295 295 294 294
299 299 300 299 297 296 292 291 290 292 295 292 291 289 287 288 288 289 291 292 291 291 291 291 291 290 290 291 291 290 291 291 291 289 287 286 287 286 285 286 286 287 289 289 290 290 289 289 289 290 292 293 293 294 295 294 294 295 295 295 295 295 295 295 295 295 295 295 295 295 295 295 294 295
299 298 303 301 295 293 292 289 290 290 291 289 288 287 286 286 286 287 287 289 290 291 291 290 290 290 290 290 291 291 291 291 292 287 285 286 285 285 285 284 285 287 288 289 292 288 287 289 289 289 289 289 289 293 295 294 293 295 295 294 295 294 295 295 295 295 295 295 295 295 295 295 295 297
293 292 294 296 294 292 291 289 289 289 290 288 287 286 286 287 285 285 285 285 286 286 287 287 288 288 290 290 289 290 291 291 292 290 288 287 286 285 285 285 285 285 285 288 290 288 287 288 288 288 289 288 288 289 292 292 292 294 295 293 293 294 294 294 294 294 294 294 294 294 294 294 295 297
290 291 291 291 289 289 289 288 288 289 290 288 287 287 287 287 286 284 285 287 286 285 285 285 285 286 286 287 287 287 287 289 292 290 289 288 287 286 286 286 286 284 285 287 291 289 288 288 288 286 288 287 284 287 291 291 291 291 290 291 291 293 293 294 294 293 293 293 293 293 293 293 294 296
290 289 289 290 290 289 289 288 288 289 289 290 289 287 285 285 286 288 285 285 290 285 285 286 286 286 286 286 286 286 286 287 288 289 289 289 288 287 287 286 286 286 287 290 293 290 288 287 288 287 289 289 289 289 288 287 288 290 292 293 291 292 292 293 293 292 293 293 292 292 292 293 293 293
288 288 287 288 289 289 289 288 288 288 288 289 292 287 287 287 288 286 287 285 285 285 285 283 284 284 284 284 285 286 287 288 290 289 288 288 288 288 288 288 287 286 287 289 291 290 289 288 289 289 289 288 288 286 287 287 288 288 290 290 290 291 291 291 291 290 290 289 288 289 289 291 292 292
289 289 290 291 290 288 288 288 288 288 288 289 288 288 287 287 287 288 285 284 284 283 283 284 284 284 284 285 285 286 287 287 288 288 288 288 289 289 290 290 290 289 290 291 293 293 291 289 291 290 290 290 288 287 286 286 285 286 289 289 289 288 289 287 288 289 289 288 289 292 292 291 290 290
291 290 290 291 289 288 288 288 288 288 288 287 287 287 287 287 288 286 284 284 284 284 283 282 283 283 284 285 285 286 288 288 289 289 289 289 289 290 290 291 292 292 292 292 292 292 292 291 291 292 292 290 289 287 287 287 286 287 288 286 287 289 288 288 287 289 288 287 287 288 288 289 290 290
291 290 290 289 289 288 288 288 288 288 288 287 287 288 288 290 285 284 283 283 284 282 282 283 284 284 285 286 287 288 288 289 289 288 289 290 290 290 291 292 292 292 293 294 293 293 293 292 291 292 292 291 290 290 290 289 290 288 287 287 285 287 288 288 287 286 287 286 287 286 287 288 288 289
288 288 289 289 288 289 288 287 286 286 286 288 288 288 289 285 284 284 283 282 283 282 282 283 284 284 284 285 286 286 287 286 286 287 287 287 286 288 288 288 289 290 292 293 294 294 294 293 293 292 292 292 292 291 291 290 290 291 289 288 288 287 288 286 285 286 287 286 286 287 287 286 287 288
288 288 288 287 287 287 287 287 287 287 287 285 284 281 282 283 283 283 283 283 283 283 284 284 284 285 285 286 285 285 285 285 286 287 287 286 286 287 287 287 287 287 290 291 292 293 293 294 294 293 291 291 292 292 292 292 291 291 291 291 289 288 288 289 288 286 285 286 285 286 286 287 288 290
288 286 287 286 285 285 285 285 283 283 282 283 284 282 283 282 283 286 287 287 283 283 284 284 284 284 285 285 285 286 285 285 285 286 286 286 285 285 285 284 285 286 288 289 290 292 291 294 294 294 293 293 291 292 293 292 291 291 292 292 291 292 291 290 290 290 290 288 286 285 286 288 290 291
285 284 284 283 283 282 280 280 282 280 280 281 282 282 283 283 283 283 282 284 284 284 284 284 284 284 285 285 286 286 285 285 285 285 284 285 285 285 285 285 285 286 286 286 287 289 291 292 293 294 294 294 294 293 292 289 290 292 291 291 291 291 291 291 291 291 290 289 287 286 287 289 291 292
282 281 280 279 279 279 279 279 279 279 279 281 280 281 283 281 282 282 282 283 283 283 283 284 284 285 285 285 286 286 286 286 286 286 286 285 284 284 285 285 285 286 286 286 286 287 289 290 291 292 292 292 293 293 293 290 289 290 290 291 291 291 292 292 291 291 290 289 288 287 287 288 289 291
282 282 280 278 278 278 279 279 279 278 279 280 280 280 280 282 282 283 283 284 283 283 283 284 285 285 285 285 285 285 285 286 286 286 286 285 285 285 285 285 285 285 286 286 286 287 287 288 288 288 289 289 289 291 294 293 290 290 290 291 291 291 291 291 290 290 290 289 288 287 286 286 287 289
281 278 278 278 279 278 279 280 279 280 280 280 281 282 283 284 284 284 284 285 284 283 283 284 284 285 285 285 285 285 285 285 285 285 286 286 285 286 286 285 285 286 286 286 286 287 287 287 287 286 285 285 285 285 286 293 294 292 289 288 290 290 291 290 289 289 289 288 288 287 286 286 287 288
277 276 275 277 278 278 278 279 280 281 281 282 282 283 284 285 285 285 285 284 283 283 283 284 285 285 285 285 285 285 285 285 285 285 285 286 286 285 285 285 285 285 285 286 287 287 287 286 287 286 285 284 284 283 285 289 291 294 292 289 288 290 290 288 288 287 288 289 288 287 286 286 286 287
277 277 278 279 280 280 280 280 280 281 281 282 282 283 283 283 283 283 283 282 283 284 284 284 285 285 285 285 284 284 285 285 285 285 285 285 285 284 285 284 285 285 285 286 286 287 287 287 286 286 286 284 283 284 284 286 287 288 292 292 289 288 289 288 287 287 287 288 287 287 286 286 286 286
279 279 279 279 280 280 279 280 279 281 281 281 282 282 282 282 282 282 283 283 284 284 285 285 285 285 285 285 285 284 284 284 284 284 284 284 285 284 284 284 284 285 285 285 286 286 287 286 286 286 286 285 284 285 286 285 286 287 288 291 292 288 287 288 288 287 286 286 285 285 285 286 287 287
281 280 280 280 280 281 280 281 280 281 282 282 284 285 284 284 283 283 283 284 284 285 285 284 285 285 285 285 285 285 284 284 284 284 284 284 285 285 284 285 284 284 284 284 284 285 286 286 287 287 287 287 288 288 288 288 288 288 288 287 290 291 289 288 288 287 286 286 286 285 283 285 284 285
279 279 279 280 281 281 281 281 282 281 284 285 285 285 285 284 283 283 283 284 284 284 284 284 284 284 284 285 285 284 284 284 284 284 284 284 284 284 284 284 284 284 284 284 284 285 285 287 288 288 288 288 288 287 286 285 285 287 288 286 288 289 290 291 290 288 286 286 286 285 284 283 283 284
278 279 279 281 281 281 281 281 283 284 285 285 285 284 284 283 283 284 284 284 284 284 284 284 285 285 284 285 285 284 284 284 284 284 284 284 284 284 284 284 284 284 284 283 284 285 287 287 287 287 287 287 286 284 284 285 285 286 286 286 286 288 289 290 291 290 288 286 286 284 284 284 284 283
279 279 279 280 280 281 281 282 283 283 283 284 284 284 284 283 283 283 283 284 284 284 284 284 285 285 285 285 285 285 284 284 284 284 284 284 284 284 284 284 284 285 285 285 286 286 286 286 286 286 286 286 285 285 284 285 286 286 285 285 285 286 287 289 289 289 289 289 288 287 286 285 283 280
278 278 278 279 279 280 280 280 281 282 282 282 283 283 283 283 283 284 284 284 284 284 284 284 285 284 284 285 285 285 284 284 284 284 284 284 284 284 284 284 285 285 285 285 285 285 286 285 285 285 285 285 286 285 285 285 285 286 286 285 285 285 285 286 287 287 287 287 288 288 288 287 286 287
278 278 279 278 277 277 277 278 280 281 282 282 282 282 283 283 284 284 284 284 284 284 284 284 284 285 285 285 284 284 285 285 285 285 285 285 285 285 285 285 285 285 285 285 285 285 285 285 285 286 285 286 286 286 286 286 286 285 285 285 284 285 285 285 285 285 285 285 286 287 286 287 287 287
Wind_Speed
4 4 4 4 3 1 1 2 2 2 2 3 3 2 3 3 3 3 4 4 2 3 4 4 4 7 7 7 7 7 7 8 10 7 7 6 6 10 12 12 11 10 9 8 8 9 10 10 10 10 10 10 10 10 9 9 10 11 13 14 15 16 17 20 19 20 23 22 23 20 19 20 19 20
4 4 3 2 3 0 2 1 2 2 2 3 3 2 1 3 3 0 1 4 2 3 4 1 3 5 8 7 7 5 6 9 10 7 7 6 6 10 10 10 9 9 9 8 8 9 10 10 11 10 10 10 10 10 10 10 10 10 10 12 13 14 16 19 19 21 23 24 22 19 15 20 22 22
4 4 3 2 2 1 1 2 3 3 3 5 3 2 3 4 2 1 0 2 4 1 4 3 2 3 5 7 6 6 6 8 9 7 7 6 10 12 8 10 8 7 6 6 7 8 9 9 9 10 10 11 11 11 11 11 11 11 11 11 11 13 15 17 18 17 21 20 21 23 21 20 18 20
3 3 4 3 3 1 2 3 3 3 3 1 2 3 4 2 2 2 1 1 7 2 2 4 6 6 6 6 6 7 7 7 8 5 6 7 9 7 6 8 11 10 8 7 6 7 8 9 10 11 11 12 12 12 12 11 11 12 12 12 12 12 13 15 16 19 19 18 19 18 22 21 15 16
3 3 3 2 1 0 3 1 1 2 3 3 3 2 3 4 3 3 1 3 7 4 1 2 4 6 5 6 5 8 9 9 8 7 5 5 5 6 6 6 9 11 11 10 9 8 8 9 9 10 11 12 12 12 12 12 12 12 13 13 13 13 13 14 14 15 17 18 19 15 13 17 18 15
3 3 3 2 2 1 1 1 2 3 4 4 4 4 3 4 4 3 2 2 1 6 6 6 4 4 4 6 5 7 10 11 10 11 9 7 5 5 7 7 6 10 11 11 10 9 9 9 10 10 11 11 12 12 13 13 13 13 13 13 13 13 13 14 13 13 14 15 17 17 18 17 17 13
3 3 3 3 3 1 1 0 0 2 3 1 2 3 3 4 3 3 1 2 3 5 6 3 6 5 6 5 7 8 7 8 9 10 10 9 8 8 8 8 6 10 12 12 12 12 12 11 10 10 11 11 12 12 12 13 13 13 13 13 13 13 13 13 13 12 13 14 15 15 15 15 15 18
5 5 4 3 3 3 3 2 1 3 3 3 3 3 3 3 3 3 3 3 1 1 5 4 5 5 6 5 6 7 7 8 8 7 8 9 9 9 9 9 8 11 15 13 13 13 13 13 13 12 12 12 12 12 13 13 13 13 13 13 13 13 13 13 12 12 12 12 13 13 13 14 17 19
6 5 5 5 4 4 3 1 1 1 3 3 5 4 4 4 3 3 4 3 3 3 5 5 2 5 5 4 5 6 9 9 7 7 9 8 8 10 9 8 9 14 16 14 15 15 14 14 14 15 14 13 12 12 12 13 13 13 13 14 14 13 13 13 12 12 11 12 12 11 12 13 17 18
6 7 6 5 5 5 5 4 1 2 3 3 4 4 3 3 3 4 4 4 4 4 3 3 6 4 6 8 4 6 8 8 8 9 8 7 9 10 12 10 8 7 8 8 10 12 13 16 16 17 16 15 16 16 14 11 11 12 13 13 13 12 12 12 12 11 10 10 11 10 10 11 15 18
6 7 6 6 6 6 6 5 4 4 3 4 3 3 3 2 3 4 3 4 4 3 4 3 2 5 3 3 7 8 6 5 3 8 11 11 8 6 7 10 9 7 9 9 11 11 11 13 12 15 17 17 17 16 16 14 11 11 12 12 12 12 12 12 11 10 10 10 10 11 10 10 11 15
7 7 7 7 7 7 6 6 6 6 6 4 4 2 3 3 4 3 3 4 4 5 4 3 4 3 3 6 2 4 6 10 9 7 5 8 10 10 7 4 7 6 8 10 11 11 12 12 14 15 14 15 17 16 14 14 13 12 12 11 12 12 12 12 12 11 11 10 10 10 10 10 10 11
6 6 6 6 6 7 9 11 9 8 8 5 5 2 3 3 2 1 2 3 4 4 4 5 3 5 6 5 7 9 7 7 7 7 5 6 6 7 9 7 1 3 7 8 9 9 8 10 9 9 9 10 13 13 13 11 15 16 14 12 13 12 12 12 12 11 10 10 9 8 8 8 9 9
5 6 6 6 11 12 12 12 12 11 10 8 6 6 5 4 3 1 0 1 1 2 5 5 5 7 7 6 5 5 5 5 4 5 6 8 8 8 9 6 1 4 7 9 10 10 7 8 9 8 9 8 8 8 9 9 12 16 18 16 12 11 11 9 8 8 7 6 6 7 8 8 9 9
7 5 5 5 9 10 10 10 13 11 11 10 10 10 9 8 5 3 2 1 1 1 2 2 3 3 6 7 5 5 7 5 5 5 5 5 6 6 8 12 8 3 9 8 10 10 7 6 9 10 8 8 8 8 8 13 15 15 15 16 13 9 7 6 4 3 3 4 5 6 6 7 8 9
5 6 5 4 4 4 6 5 6 7 9 10 10 10 10 9 8 7 5 3 1 2 3 3 4 3 5 6 5 5 5 7 7 7 6 5 5 7 6 6 8 6 6 8 9 10 4 4 6 8 8 9 8 8 10 13 13 13 13 12 11 8 5 3 2 2 3 3 3 3 4 5 6 7
8 8 6 4 3 3 7 7 5 5 5 5 7 8 8 7 8 7 6 5 4 3 3 4 4 4 3 4 4 2 4 4 7 8 7 6 5 5 7 7 7 8 5 6 8 10 7 4 5 8 7 6 7 7 6 10 11 11 10 10 9 8 6 5 5 4 4 1 1 1 2 4 5 6
7 7 7 6 5 3 3 3 4 3 3 3 3 3 3 4 4 5 6 7 7 5 5 4 5 4 2 4 4 5 4 4 6 6 8 7 7 7 8 8 9 7 3 4 5 9 7 5 5 7 8 7 5 6 5 6 5 6 8 9 9 9 8 8 8 7 6 6 5 5 4 4 3 4
2 3 4 5 4 1 2 3 4 4 4 3 2 2 3 4 3 2 1 1 1 2 2 3 3 4 3 3 4 4 3 3 4 4 5 6 7 8 8 7 5 5 2 3 1 8 6 5 8 7 8 8 6 5 3 6 2 5 6 7 7 7 7 7 7 6 6 5 5 6 5 5 5 5
5 4 4 4 3 3 2 2 4 4 2 3 3 3 1 2 2 1 2 4 5 4 3 1 0 2 3 4 3 3 4 4 4 5 4 4 5 7 9 11 9 7 2 3 3 6 7 3 7 8 7 7 8 5 2 4 4 5 7 8 8 7 7 7 7 8 7 6 5 5 5 6 7 7
4 3 2 3 5 4 3 4 7 4 5 1 1 1 1 2 3 4 4 5 5 4 2 1 1 3 5 6 7 8 9 6 5 5 6 6 5 7 10 11 8 10 5 2 3 6 9 4 4 5 5 6 6 5 3 2 4 3 6 7 8 7 7 7 7 7 7 6 6 5 5 6 7 8
6 6 7 5 6 7 5 7 11 10 9 6 4 3 2 2 3 3 2 3 3 4 4 5 6 6 7 9 9 8 8 9 6 3 7 6 5 7 6 10 7 8 6 7 7 4 4 3 3 6 3 3 3 3 2 2 2 2 1 4 5 5 6 7 8 8 8 7 7 7 6 6 5 3
5 5 6 8 8 8 8 11 10 10 8 6 4 3 2 1 2 3 0 2 4 5 6 6 6 6 8 7 6 7 11 12 9 5 6 5 6 7 7 7 7 9 2 3 1 6 5 4 3 2 6 5 3 2 2 3 3 3 2 2 3 6 7 7 8 8 9 10 10 10 9 9 7 4
5 5 5 7 11 11 11 10 9 7 7 5 4 3 2 0 3 1 0 1 1 2 2 4 4 5 5 6 5 5 6 7 5 7 6 6 6 7 7 7 6 8 5 2 4 7 5 3 6 1 3 6 5 3 4 3 1 2 2 1 1 3 4 4 5 6 7 7 8 8 9 9 6 4
5 5 4 4 6 9 9 8 7 7 6 6 4 3 2 2 1 1 0 3 3 2 3 4 4 6 6 6 5 6 6 7 7 7 6 6 6 6 7 7 8 8 7 6 8 5 5 3 6 3 6 4 5 5 3 3 3 1 3 3 1 1 1 2 1 3 3 5 5 6 6 6 6 3
4 4 4 3 4 6 7 7 6 6 6 4 2 2 4 4 2 1 1 1 2 3 4 4 5 6 6 6 6 7 7 7 7 7 7 7 7 6 7 8 9 9 7 5 7 6 7 6 5 6 4 5 6 4 5 3 3 5 2 3 3 3 3 2 1 0 1 1 1 2 2 3 3 2
5 4 4 3 5 5 4 4 4 4 3 2 1 2 2 3 3 1 1 1 3 4 4 5 6 6 6 6 7 7 7 7 7 7 7 8 8 8 8 8 8 9 9 7 6 7 6 7 5 7 8 6 8 5 5 4 4 1 1 4 4 3 3 4 4 4 4 3 3 4 2 1 2 2
4 3 1 1 3 3 2 2 3 3 3 2 3 3 5 4 2 0 1 3 3 3 4 5 6 6 6 6 6 6 7 7 7 7 7 7 8 8 8 8 9 8 8 7 7 8 8 9 8 7 9 8 9 8 8 4 4 4 6 2 2 3 4 3 3 3 3 3 3 2 2 2 1 0
3 2 1 1 2 4 5 5 5 3 2 4 5 4 2 2 1 1 1 4 3 5 5 6 6 6 6 7 7 7 7 7 6 5 6 6 7 7 8 9 9 8 7 7 8 8 9 8 9 8 8 8 9 8 7 8 5 4 5 3 2 5 6 5 5 5 4 3 3 3 4 3 2 1
7 5 4 4 3 1 0 1 1 1 1 2 4 4 3 1 0 1 2 3 3 5 6 6 6 7 6 7 7 7 6 6 7 6 6 6 6 6 7 8 7 6 7 8 8 9 9 9 8 8 8 8 8 8 7 7 7 5 5 5 5 1 4 5 5 4 3 5 4 3 4 2 4 2
4 5 5 5 7 7 8 8 6 6 5 4 4 4 3 3 3 3 3 3 4 5 6 6 7 7 7 6 6 7 7 7 7 6 7 7 7 6 6 7 8 7 8 8 8 8 8 9 9 8 9 8 8 9 8 7 7 6 6 5 4 5 3 4 4 5 5 4 2 1 2 2 2 2
4 4 6 8 6 6 7 6 6 6 5 4 5 5 4 4 3 3 4 4 3 4 5 6 6 7 7 7 8 7 7 7 7 6 7 7 8 6 6 7 8 7 7 7 8 7 8 8 8 8 8 8 9 8 6 7 7 6 5 5 4 4 3 5 5 5 4 3 2 3 2 2 3 3
5 5 7 6 6 6 5 5 5 4 5 5 3 3 4 4 4 5 6 6 6 7 7 8 8 8 8 8 8 8 8 8 8 6 7 7 8 7 6 8 8 8 9 9 8 8 7 8 7 8 8 7 7 8 7 7 5 5 6 6 5 5 4 5 5 4 3 2 4 2 3 3 3 3
6 5 5 4 4 5 5 5 5 5 4 5 6 5 4 4 5 5 5 6 6 6 6 7 8 8 8 9 8 8 9 8 7 7 8 8 6 7 7 9 9 8 8 9 8 8 8 7 7 7 6 6 6 6 7 7 8 8 6 5 5 7 6 5 6 5 7 6 5 4 3 3 2 2
5 5 6 4 4 4 3 4 5 4 5 6 6 6 6 5 5 5 6 7 6 6 7 7 7 8 8 9 8 9 9 9 9 8 6 6 7 8 8 9 9 9 8 8 8 7 6 7 6 7 7 6 7 7 9 10 8 9 6 6 6 7 7 5 5 6 6 4 4 5 3 2 3 2
5 5 5 5 4 4 5 5 5 5 6 6 6 6 6 6 5 5 6 7 6 7 7 7 8 8 8 8 9 9 9 9 9 9 8 7 8 8 8 9 9 9 9 9 9 7 6 7 6 7 8 7 6 9 7 10 13 7 7 6 5 6 6 5 5 5 5 5 4 5 4 5 4 2
4 4 3 4 4 4 4 4 5 5 5 5 6 5 5 6 6 6 7 6 7 7 8 8 8 8 9 9 9 9 9 9 9 8 9 8 8 8 9 9 9 9 9 9 8 8 6 7 6 7 8 8 9 10 7 0 11 13 7 7 5 5 7 3 4 4 5 6 5 6 4 3 2 2
3 2 3 4 4 4 4 4 4 5 6 5 4 5 5 5 6 7 7 7 8 8 8 8 9 9 9 8 9 9 9 8 9 9 9 8 8 8 8 9 9 8 9 9 7 7 6 7 7 7 7 10 9 8 7 2 1 5 10 8 6 6 4 4 4 6 5 4 4 2 2 3 3 2
3 2 1 2 2 3 3 4 3 3 4 5 4 5 6 7 7 8 8 8 8 8 8 9 9 9 9 9 9 9 9 8 9 9 9 8 8 9 9 9 9 8 8 9 7 7 7 8 8 7 7 8 9 7 6 4 5 3 4 7 8 4 4 6 6 5 4 4 4 5 5 5 7 9
0 1 2 3 3 3 3 2 2 3 5 5 5 6 6 8 8 8 8 9 9 9 9 9 10 9 9 9 9 9 9 10 10 9 9 9 9 9 9 8 9 9 8 9 8 7 7 8 8 8 8 8 8 7 5 5 4 3 4 3 4 8 6 6 6 5 5 5 6 7 7 5 4 1
2 4 1 1 2 1 1 2 3 4 5 6 7 7 8 7 9 8 8 9 9 9 9 9 9 9 9 9 9 9 9 9 9 9 9 9 9 9 10 10 9 8 8 9 9 8 9 8 8 10 9 6 5 3 3 5 6 6 5 3 4 5 9 10 7 8 6 7 7 7 7 6 5 4
3 2 1 0 1 1 1 3 5 6 6 6 7 8 8 8 8 14 12 12 10 9 9 9 9 9 9 9 8 8 8 9 9 9 9 8 9 9 10 9 9 8 8 9 9 9 6 4 5 5 5 5 4 6 7 5 6 5 2 1 2 6 4 10 10 10 12 10 9 7 5 4 3 5
2 1 1 0 0 1 3 5 6 5 6 7 8 8 8 9 9 10 8 9 9 9 9 9 9 8 9 8 8 8 8 9 8 9 9 8 8 9 9 8 8 8 8 8 8 7 6 4 4 4 5 6 6 6 7 6 5 3 2 2 2 3 6 8 11 11 10 9 7 5 2 4 8 6
2 2 1 0 2 3 4 5 5 5 6 7 8 8 8 8 9 10 9 9 9 9 9 9 9 9 9 9 8 8 8 8 8 8 9 8 8 8 9 9 8 8 7 7 7 6 5 5 5 5 5 6 5 5 7 5 4 3 4 3 3 5 7 6 8 9 9 9 9 9 9 7 6 3
3 2 1 1 3 4 4 4 5 6 6 7 7 8 8 8 9 9 9 9 9 9 9 9 9 9 9 9 8 8 8 8 8 8 8 8 8 8 8 8 8 8 7 6 6 6 5 5 4 4 5 5 5 5 5 4 4 4 4 5 5 5 5 6 8 7 6 5 5 9 9 9 12 16
Wind_Direction
109 97 103 117 108 83 62 38 35 29 65 85 96 105 116 137 89 352 349 291 315 313 3 5 313 13 354 351 349 354 354 353 1 2 1 356 356 354 353 354 354 354 335 305 289 283 274 257 249 252 255 258 259 258 251 233 225 231 235 235 233 230 222 227 224 224 227 227 237 230 213 204 206 208
107 105 90 95 86 350 60 14 340 17 25 19 55 85 96 117 113 158 2 295 241 278 313 10 318 342 346 348 346 353 344 343 355 351 349 345 343 343 344 350 345 350 345 326 303 293 286 287 288 287 286 285 284 280 274 265 254 246 242 233 228 229 231 232 223 218 227 227 230 235 228 215 206 206
119 119 109 129 123 124 88 19 358 348 9 346 350 47 87 75 114 137 120 358 289 188 329 294 297 318 331 340 336 339 338 337 344 342 338 336 335 340 337 337 339 336 334 312 297 284 279 275 272 273 277 279 279 278 276 271 264 256 251 247 241 232 232 235 238 230 235 233 225 223 226 228 216 209
133 124 124 154 156 168 96 40 22 13 347 17 354 0 9 21 97 117 118 235 277 263 254 297 312 333 331 331 346 336 332 334 337 331 327 323 331 334 326 327 327 325 323 315 287 279 275 272 272 271 270 271 270 269 265 261 259 258 253 247 243 241 240 242 244 243 244 243 246 234 230 228 223 215
146 153 159 188 211 120 81 70 40 32 11 11 17 11 19 347 3 29 338 319 303 307 240 276 325 320 340 341 348 342 338 334 333 331 319 317 323 320 317 319 318 317 317 316 309 293 278 271 269 269 268 267 268 267 266 261 255 250 248 245 241 237 236 237 241 245 246 244 247 246 250 246 237 225
188 161 173 220 243 231 129 72 28 31 27 13 17 15 41 22 7 16 47 305 287 307 331 343 332 330 357 335 345 349 343 337 336 335 334 334 330 324 324 326 320 315 317 319 320 311 300 295 290 286 278 272 266 263 261 260 256 252 248 246 245 243 240 237 237 236 237 238 240 237 233 233 236 229
183 159 182 213 215 158 155 273 33 58 44 55 62 37 39 59 39 32 42 44 341 320 310 321 339 343 342 346 339 346 346 340 338 342 345 345 344 347 346 343 333 330 331 328 328 330 331 327 318 305 295 287 281 275 269 263 256 253 250 247 244 246 246 243 241 240 238 237 238 236 235 233 227 225
181 186 182 215 191 182 178 244 340 43 65 90 105 81 61 78 49 49 55 60 45 301 332 318 332 334 344 337 346 345 351 353 348 353 346 354 1 359 357 351 345 338 338 345 350 350 348 347 345 340 330 317 305 295 287 278 272 263 255 249 246 242 241 242 240 240 242 245 244 238 233 230 233 235
187 187 191 194 177 165 190 264 312 53 63 59 66 58 35 47 34 41 45 43 60 34 349 314 301 340 334 332 336 359 356 346 350 357 358 352 354 353 352 356 351 348 358 1 3 2 1 1 0 359 357 353 345 326 305 292 283 276 268 258 250 245 244 243 242 240 242 246 250 250 244 234 236 237
192 188 198 183 172 170 184 210 167 109 110 94 80 75 57 49 44 40 27 35 33 27 355 336 321 5 359 342 342 354 355 348 345 350 347 350 3 1 352 350 350 354 360 358 360 359 358 355 355 355 351 351 352 351 343 314 289 279 272 269 267 263 254 249 248 248 247 250 253 253 251 249 244 242
191 192 194 187 175 180 190 178 159 140 124 115 109 108 104 65 61 39 30 22 23 29 4 333 8 325 344 8 331 341 343 338 11 1 348 346 351 357 357 340 340 350 348 350 1 1 353 350 354 347 346 346 346 347 346 340 319 293 280 272 266 259 257 259 256 251 244 244 247 250 245 242 246 247
191 191 192 187 182 184 184 169 167 150 148 138 116 148 103 73 54 38 20 23 19 12 5 4 325 337 319 337 301 312 345 354 354 14 5 336 336 338 339 336 319 344 355 349 345 351 353 351 348 346 343 342 337 338 342 339 333 317 298 281 267 260 254 247 243 241 239 237 239 243 246 242 240 245
195 191 186 181 174 175 170 168 162 162 156 146 136 160 114 102 101 68 41 30 22 4 6 338 336 335 339 333 339 342 356 353 319 317 348 323 324 322 325 330 325 24 358 343 341 345 355 339 340 338 335 336 334 332 335 333 340 339 333 307 284 270 258 252 250 245 240 240 244 250 256 261 258 253
199 187 181 176 166 161 159 158 155 154 153 150 144 157 145 139 126 133 124 47 52 20 351 330 340 339 326 325 333 321 310 303 302 326 340 333 326 331 324 312 33 9 8 349 340 329 341 338 323 334 329 326 331 325 330 331 336 336 338 339 309 276 266 261 262 272 276 271 259 250 249 253 255 255
190 191 183 165 162 158 156 154 155 157 156 152 151 156 156 158 149 152 158 210 164 193 245 276 330 306 302 305 314 310 309 314 312 311 321 311 326 342 342 324 327 85 12 343 329 320 330 340 328 325 324 323 329 327 320 335 341 335 336 342 343 315 299 300 295 270 272 270 263 259 257 251 254 255
163 178 173 172 159 155 149 150 157 164 168 164 162 160 154 152 156 156 162 183 179 189 225 265 258 250 274 286 308 303 313 312 322 319 323 319 324 323 316 298 299 314 12 331 317 305 317 320 314 312 318 323 320 314 323 347 336 333 337 352 5 17 28 48 96 158 192 218 237 244 242 253 260 265
185 178 158 138 110 130 158 164 171 173 188 185 161 148 144 157 171 181 183 184 193 177 196 223 249 229 248 283 278 279 309 332 318 320 320 320 313 301 299 291 295 307 330 321 308 305 318 324 311 309 307 307 308 311 357 348 333 333 349 6 13 20 37 68 85 90 77 86 341 281 289 283 281 281
169 160 159 154 173 167 175 175 169 184 198 159 134 139 163 187 206 207 206 206 216 209 207 212 239 249 188 259 289 306 333 327 306 314 307 316 313 306 291 292 290 288 283 268 296 300 314 320 320 309 306 303 304 307 18 354 347 13 29 37 36 37 35 35 36 36 34 26 19 11 356 340 322 302
82 109 122 130 140 163 176 182 182 195 205 177 170 158 203 221 237 237 269 284 236 226 246 244 267 300 312 281 286 294 305 279 270 267 273 285 285 286 290 282 255 286 243 258 288 288 309 318 314 301 300 298 298 300 14 357 51 91 85 73 66 53 50 43 37 32 20 10 356 344 335 322 309 293
117 120 122 129 142 167 171 318 226 221 169 174 197 226 307 358 354 26 50 48 79 81 90 102 252 269 278 287 287 292 295 292 285 292 292 294 293 306 311 302 314 295 280 264 270 292 293 288 287 298 296 296 293 302 360 352 15 102 102 97 87 78 67 58 50 41 34 23 12 337 315 304 296 294
77 69 101 125 120 89 58 54 76 74 120 83 73 72 57 15 22 1 0 47 68 57 64 125 262 286 299 306 304 299 293 285 284 292 302 296 300 304 301 293 300 294 319 263 272 270 287 284 276 293 288 297 294 316 329 345 345 30 95 93 87 82 77 70 65 57 49 39 25 11 343 315 298 287
66 44 55 92 93 98 92 86 81 80 88 88 86 79 66 37 3 320 330 342 340 354 353 346 339 334 330 327 325 319 311 307 304 297 294 294 298 286 281 290 298 298 302 282 250 260 245 284 301 307 285 324 302 296 289 296 284 291 69 74 82 81 76 64 50 43 38 33 24 17 6 355 343 290
67 60 45 76 104 110 109 94 90 96 101 113 127 138 116 74 320 275 292 360 345 343 346 340 342 335 331 326 319 311 310 308 308 289 275 284 279 281 285 285 301 302 276 262 319 309 294 333 270 315 321 311 281 269 280 297 302 314 336 31 38 35 48 45 43 33 24 15 8 5 359 351 352 344
58 63 76 75 93 95 94 96 99 106 117 124 146 130 106 87 304 240 135 272 262 289 297 290 298 291 291 298 295 294 294 293 280 280 274 266 257 268 277 277 271 270 283 272 296 279 279 243 283 224 255 294 297 299 329 309 277 269 286 347 19 347 10 23 32 23 22 16 6 1 358 349 345 325
105 94 87 82 100 111 116 120 125 126 126 133 143 149 151 186 200 137 357 296 322 317 301 300 304 298 298 292 289 283 283 277 274 270 268 262 249 248 264 273 272 270 264 263 261 266 275 273 284 277 271 234 264 294 259 254 293 259 218 218 214 255 27 3 32 6 2 360 4 360 3 5 11 7
114 131 135 138 159 143 136 136 141 145 149 153 131 179 194 228 267 326 293 302 314 306 301 303 302 299 297 294 290 285 276 270 268 265 264 266 261 244 236 247 263 274 275 258 257 266 279 279 260 275 262 272 272 228 282 281 264 265 230 251 230 207 169 170 140 272 298 309 325 330 352 18 18 38
146 153 160 171 172 176 160 163 158 162 171 123 250 245 263 277 310 328 284 295 312 310 305 300 291 284 282 282 278 274 271 263 261 262 261 262 264 265 257 243 237 251 267 269 263 264 262 273 269 271 278 270 279 275 262 273 286 295 292 250 233 224 203 168 175 189 201 203 222 222 224 249 49 47
120 125 128 184 204 221 237 220 225 224 192 206 233 259 262 273 294 25 342 321 291 285 288 288 282 277 269 270 273 268 262 263 261 262 261 261 259 259 261 261 262 257 262 261 262 261 263 269 270 262 266 271 272 275 282 243 238 237 243 261 250 245 230 200 187 190 205 200 198 224 219 246 249 231
79 106 174 299 267 257 247 248 251 246 230 221 224 239 305 29 52 356 267 264 276 284 276 272 270 271 267 262 265 270 273 271 275 277 273 268 267 269 270 269 269 272 271 270 267 264 265 264 267 267 263 259 262 265 263 270 262 248 224 227 252 243 228 231 198 200 210 195 200 212 218 221 245 215
118 133 167 173 197 174 201 140 115 98 58 26 18 354 8 35 304 263 268 278 271 267 272 274 275 273 275 276 270 271 275 276 272 268 268 271 274 274 277 283 276 269 264 265 265 266 267 267 266 265 263 260 258 265 262 271 264 253 233 233 235 299 244 220 220 218 199 211 215 214 247 218 220 197
50 55 63 72 74 74 61 57 52 47 25 28 19 6 3 345 323 305 283 280 285 293 294 294 290 287 279 281 291 287 280 277 274 263 270 270 270 268 270 273 279 279 274 271 266 261 261 264 266 263 262 262 260 255 259 255 266 266 260 244 196 238 224 197 220 223 215 213 208 228 278 270 262 228
42 56 54 50 37 38 35 28 23 15 16 19 6 345 337 328 325 321 310 316 307 295 285 287 294 294 296 291 284 283 280 274 275 274 274 272 275 268 276 277 275 276 276 272 273 267 262 261 264 263 257 259 259 261 257 253 258 262 265 266 236 237 190 205 217 224 198 163 178 227 246 237 242 228
53 55 51 42 37 35 40 26 16 4 3 349 340 334 334 337 339 342 352 333 314 309 315 308 304 299 295 290 286 282 280 275 274 266 267 261 263 268 256 266 275 277 279 277 273 275 271 270 257 259 264 264 260 261 261 265 253 242 251 254 250 249 221 218 215 214 140 154 233 228 255 253 245 229
79 64 70 48 55 38 32 23 3 351 347 343 338 329 324 336 344 334 322 307 299 299 295 293 294 291 291 288 286 283 280 280 271 262 254 265 253 263 263 269 269 266 265 269 270 272 276 273 272 269 259 255 249 238 243 255 263 259 245 246 235 249 237 211 213 191 181 192 191 212 239 252 256 225
66 62 60 30 29 20 18 13 353 349 352 338 335 326 328 332 331 319 306 299 297 293 291 291 286 286 286 287 287 285 283 282 280 276 262 249 252 256 264 266 268 267 266 266 264 264 268 271 273 274 274 275 276 264 221 225 253 256 260 243 236 242 245 207 195 194 193 198 161 189 223 259 258 226
50 56 58 32 15 10 16 348 351 353 352 339 333 326 330 319 304 296 297 294 290 287 285 288 289 288 287 286 287 284 284 282 281 279 277 270 267 265 263 262 265 266 264 263 264 261 255 258 249 258 264 268 266 275 273 213 215 234 240 253 235 236 245 221 201 191 185 186 181 170 186 216 210 173
62 41 53 37 2 14 5 352 357 350 344 342 332 322 302 306 307 300 295 298 295 291 290 291 290 289 288 285 284 282 280 279 279 278 275 273 269 266 267 265 262 263 263 260 257 258 247 251 240 243 253 257 258 263 267 178 223 220 207 232 244 228 231 210 177 196 206 187 182 190 189 157 155 181
87 52 32 14 10 3 13 7 6 358 345 321 295 292 293 297 304 306 311 312 304 300 296 292 288 286 284 282 283 282 279 275 274 274 271 269 269 267 262 266 266 262 261 263 255 249 237 240 240 236 236 251 261 259 277 235 188 251 225 214 229 233 204 187 195 203 202 183 172 153 100 120 138 124
96 81 59 44 15 15 17 3 350 316 295 294 304 312 317 319 315 311 310 302 297 293 292 290 286 285 285 282 277 277 278 278 276 273 273 269 264 267 268 265 266 262 263 264 257 248 235 236 235 232 226 236 242 249 249 265 250 263 270 230 226 217 192 192 207 202 162 141 110 83 64 80 83 88
96 124 96 68 17 18 18 308 299 306 314 313 321 318 313 306 304 303 300 297 294 291 289 287 286 287 284 281 280 279 275 274 274 274 272 271 269 264 264 263 262 266 264 262 260 250 236 234 229 228 226 229 238 241 243 250 271 262 259 283 238 211 199 184 203 170 161 147 135 125 128 121 117 359
103 69 35 52 38 16 320 330 322 321 333 334 323 309 301 296 297 294 291 291 292 293 293 292 292 290 288 287 285 283 281 278 275 272 271 269 266 264 262 262 263 257 257 260 257 253 243 235 232 230 229 236 240 281 292 261 254 247 242 249 326 289 236 209 185 170 154 150 144 136 138 138 131 132
125 115 37 250 142 289 346 346 341 351 335 320 308 301 298 296 288 296 295 294 292 292 293 294 293 292 290 287 287 284 280 279 280 277 273 272 272 269 261 257 258 257 250 253 255 254 252 231 230 226 229 235 242 229 239 240 242 253 243 340 319 334 306 215 192 155 143 148 143 134 101 83 99 119
115 157 184 224 233 23 11 4 354 333 308 302 299 298 297 295 292 295 294 296 299 300 298 297 295 294 291 290 287 284 281 278 276 276 275 271 268 268 269 262 255 255 252 254 255 257 254 238 229 224 224 218 220 213 232 228 230 214 152 113 78 54 48 73 100 113 121 113 76 81 128 146 151 162
175 191 196 186 37 15 11 356 322 302 296 293 292 295 293 294 296 296 297 297 300 301 301 298 297 297 296 295 291 287 280 278 279 279 278 276 269 268 269 269 265 259 255 252 255 251 245 231 220 212 216 218 213 204 222 221 221 201 163 136 128 104 96 89 85 78 70 60 80 85 80 76 52 66
198 176 170 30 27 7 346 315 300 293 294 293 293 294 294 295 294 296 297 297 299 301 300 299 301 301 300 298 298 295 293 291 288 282 279 276 274 271 270 269 269 265 259 250 248 254 240 237 224 205 214 223 204 204 209 204 198 150 143 138 126 116 119 125 117 111 98 79 61 91 89 93 101 104